Weather History for KDEQ - January, 2014

Change the Weather History Date:

Wednesday, January 8, 2014

  Actual Average Record
Temperature  
Mean Temperature 27 °F 42 °F  
Max Temperature 33 °F 53 °F 80 °F (1969)
Min Temperature 20 °F 30 °F 7 °F (1976)
Degree Days  
Heating Degree Days 38 24  
Month to date heating degree days 262 186  
Since 1 July heating degree days 1575 1395  
Cooling Degree Days 0 0  
Month to date cooling degree days 0 0  
Year to date cooling degree days 0 0  
Moisture  
Dew Point 28 °F    
Average Humidity 80    
Maximum Humidity 100    
Minimum Humidity 59    
Precipitation  
Precipitation T in 0.11 in 2.98 in (1946)
Month to date precipitation 0.02 0.89  
Year to date precipitation 0.02 0.89  
Snow  
Snow 0.00 in - - ()
Month to date snowfall T  
Since 1 July snowfall 0.1  
Snow Depth 0.00 in    
Sea Level Pressure  
Sea Level Pressure 30.30 in    
Wind  
Wind Speed 6 mph (East)    
Max Wind Speed 13 mph    
Max Gust Speed 16 mph    
Visibility 5 miles    
Events Rain    
T = Trace of Precipitation, MM = Missing Value Source: NWS Daily Summary

Daily Weather History Graph

Daily Weather History Graph

Search for Another Location

Airport or City:

Trip Planner

Search our weather history database for the weather conditions in past years. The results will help you decide how hot, cold, wet, or windy it might be!

Date:

Astronomy

Jan. 08, 2014 Rise Set
Actual Time 7:23 AM CST 5:25 PM CST
Civil Twilight 6:56 AM CST 5:52 PM CST
Nautical Twilight 6:25 AM CST 6:23 PM CST
Astronomical Twilight 5:55 AM CST 6:53 PM CST
Moon 12:09 PM CST (1/8) 12:39 AM CST (1/8)
Length of Visible Light 10h 56m
Length of Day
10h 01m
First Quarter, 56% of the Moon is Illuminated
Jan 8
First Quarter
Jan 15
Full
Jan 23
Last Quarter
Jan 30
New
Feb 6
First Quarter

Hourly Weather History & Observations

Time (CST) Temp. Windchill Dew Point Humidity Pressure Visibility Wind Dir Wind Speed Gust Speed Precip Events Conditions
12:53 AM 19.9 °F - 17.1 °F 89% 30.36 in 10.0 mi Calm Calm - N/A   Clear
1:53 AM 21.9 °F 17.2 °F 18.0 °F 85% 30.35 in 10.0 mi ESE 3.5 mph - N/A   Mostly Cloudy
2:53 AM 26.1 °F - 21.9 °F 84% 30.34 in 10.0 mi Calm Calm - N/A   Overcast
3:53 AM 28.0 °F - 24.1 °F 85% 30.34 in 10.0 mi Calm Calm - N/A   Overcast
4:53 AM 30.0 °F 25.2 °F 23.0 °F 75% 30.32 in 10.0 mi East 4.6 mph - N/A   Overcast
5:53 AM 30.9 °F 26.2 °F 19.9 °F 64% 30.31 in 10.0 mi East 4.6 mph - N/A   Overcast
6:33 AM 32.0 °F 27.5 °F 19.0 °F 59% 30.31 in 10.0 mi East 4.6 mph - N/A   Overcast
6:53 AM 32.0 °F 28.7 °F 19.0 °F 59% 30.32 in 10.0 mi East 3.5 mph - N/A   Overcast
7:53 AM 32.0 °F 26.4 °F 21.0 °F 64% 30.34 in 10.0 mi East 5.8 mph - N/A   Overcast
8:53 AM 32.0 °F 26.4 °F 21.9 °F 66% 30.36 in 10.0 mi East 5.8 mph - N/A   Overcast
9:53 AM 32.0 °F 26.4 °F 24.1 °F 73% 30.38 in 5.0 mi ESE 5.8 mph - 0.00 in   Haze
10:12 AM 30.9 °F 24.3 °F 26.1 °F 82% 30.38 in 2.0 mi SE 6.9 mph - N/A   Haze
10:20 AM 30.9 °F 26.2 °F 27.0 °F 85% 30.38 in 1.5 mi Variable 4.6 mph - 0.00 in   Overcast
10:53 AM 30.9 °F 25.2 °F 28.9 °F 92% 30.39 in 1.2 mi ENE 5.8 mph - 0.00 in   Overcast
11:16 AM 30.9 °F 25.2 °F 28.9 °F 92% 30.36 in 1.5 mi East 5.8 mph - 0.00 in   Overcast
11:38 AM 30.9 °F 26.2 °F 28.9 °F 92% 30.35 in 1.0 mi East 4.6 mph - 0.00 in Rain Light Freezing Rain
11:45 AM 30.9 °F 25.2 °F 28.9 °F 92% 30.34 in 1.0 mi East 5.8 mph - 0.00 in Rain Light Freezing Rain
11:53 AM 30.9 °F 24.3 °F 28.9 °F 92% 30.35 in 1.0 mi East 6.9 mph - 0.00 in Rain Light Freezing Rain
12:07 PM 30.9 °F 23.5 °F 28.9 °F 92% 30.32 in 1.2 mi East 8.1 mph - 0.00 in   Overcast
12:53 PM 30.9 °F 25.2 °F 28.9 °F 92% 30.30 in 1.8 mi East 5.8 mph - 0.00 in   Overcast
1:20 PM 30.9 °F 25.2 °F 30.0 °F 96% 30.28 in 1.0 mi East 5.8 mph - 0.00 in Rain Light Freezing Rain
1:53 PM 30.9 °F 23.5 °F 30.0 °F 96% 30.28 in 1.2 mi East 8.1 mph - 0.00 in   Overcast
2:00 PM 30.9 °F 25.2 °F 30.0 °F 96% 30.27 in 1.2 mi East 5.8 mph - 0.00 in Rain Light Freezing Rain
2:06 PM 30.9 °F 23.5 °F 28.9 °F 92% 30.27 in 2.0 mi East 8.1 mph - 0.00 in   Overcast
2:49 PM 30.2 °F 24.3 °F 30.2 °F 100% 30.26 in 1.5 mi East 5.8 mph - 0.00 in   Overcast
2:53 PM 30.9 °F 25.2 °F 30.0 °F 96% 30.27 in 1.5 mi SE 5.8 mph - 0.00 in   Overcast
3:04 PM 30.9 °F 22.8 °F 30.0 °F 96% 30.26 in 1.0 mi East 9.2 mph - 0.00 in Rain Light Freezing Rain
3:10 PM 30.9 °F 23.5 °F 30.0 °F 96% 30.26 in 1.2 mi East 8.1 mph - 0.00 in   Overcast
3:23 PM 30.9 °F 22.8 °F 30.0 °F 96% 30.26 in 2.0 mi ENE 9.2 mph - 0.00 in   Overcast
3:30 PM 30.9 °F 23.5 °F 30.0 °F 96% 30.25 in 2.5 mi East 8.1 mph - 0.00 in   Overcast
3:42 PM 30.9 °F 24.3 °F 30.0 °F 96% 30.25 in 3.0 mi East 6.9 mph - 0.00 in   Overcast
3:53 PM 30.9 °F 23.5 °F 30.0 °F 96% 30.26 in 4.0 mi East 8.1 mph - 0.00 in   Overcast
4:03 PM 32.0 °F 23.6 °F 30.0 °F 92% 30.25 in 1.8 mi East 10.4 mph - 0.00 in Rain Light Freezing Rain
4:16 PM 32.0 °F 23.0 °F 30.0 °F 92% 30.25 in 3.0 mi East 11.5 mph - 0.00 in Rain Light Freezing Rain
4:34 PM 32.0 °F 24.8 °F 30.0 °F 92% 30.25 in 3.0 mi East 8.1 mph - 0.00 in   Overcast
4:38 PM 32.0 °F 24.2 °F 30.0 °F 92% 30.25 in 2.5 mi East 9.2 mph - 0.00 in Rain Light Freezing Rain
4:45 PM 32.0 °F 25.6 °F 30.0 °F 92% 30.25 in 2.5 mi East 6.9 mph - 0.00 in Rain Light Freezing Rain
4:53 PM 32.0 °F 24.2 °F 30.0 °F 92% 30.25 in 2.5 mi East 9.2 mph - 0.00 in Rain Light Freezing Rain
5:01 PM 32.0 °F 24.2 °F 30.0 °F 92% 30.24 in 4.0 mi East 9.2 mph - 0.00 in   Overcast
5:53 PM 32.0 °F 25.6 °F 30.9 °F 96% 30.26 in 5.0 mi ENE 6.9 mph - 0.00 in   Overcast
6:00 PM 32.0 °F 25.6 °F 30.9 °F 96% 30.25 in 6.0 mi East 6.9 mph - N/A   Overcast
6:07 PM 32.0 °F 26.4 °F 30.9 °F 96% 30.26 in 5.0 mi East 5.8 mph - 0.00 in Rain Light Freezing Rain
6:13 PM 33.1 °F 26.1 °F 30.9 °F 92% 30.26 in 7.0 mi East 8.1 mph - 0.00 in   Overcast
6:24 PM 32.0 °F 25.6 °F 30.9 °F 96% 30.26 in 4.0 mi East 6.9 mph - 0.00 in Rain Light Freezing Rain
6:37 PM 32.0 °F 24.2 °F 30.9 °F 96% 30.27 in 4.0 mi East 9.2 mph - 0.00 in Rain Light Freezing Rain
6:53 PM 32.0 °F 25.6 °F 30.9 °F 96% 30.29 in 5.0 mi East 6.9 mph - 0.00 in   Overcast
7:53 PM 32.0 °F 24.2 °F 30.9 °F 96% 30.30 in 5.0 mi ENE 9.2 mph - 0.00 in Rain Light Freezing Rain
8:01 PM 32.0 °F 25.6 °F 30.9 °F 96% 30.29 in 7.0 mi East 6.9 mph - 0.00 in   Overcast
8:53 PM 32.0 °F 24.2 °F 30.0 °F 92% 30.32 in 6.0 mi East 9.2 mph - 0.00 in   Overcast
9:13 PM 32.0 °F 24.8 °F 30.0 °F 92% 30.31 in 6.0 mi ENE 8.1 mph - N/A   Overcast
9:40 PM 32.0 °F 24.2 °F 30.0 °F 92% 30.31 in 5.0 mi ENE 9.2 mph - 0.00 in Rain Light Freezing Rain
9:53 PM 32.0 °F 25.6 °F 30.9 °F 96% 30.32 in 5.0 mi East 6.9 mph - 0.00 in   Overcast
10:18 PM 32.0 °F 25.6 °F 30.9 °F 96% 30.32 in 5.0 mi East 6.9 mph - 0.00 in Rain Light Freezing Rain
10:29 PM 33.1 °F 26.1 °F 30.9 °F 92% 30.32 in 8.0 mi ENE 8.1 mph - 0.00 in   Overcast
10:53 PM 33.1 °F 25.5 °F 30.9 °F 92% 30.32 in 9.0 mi ENE 9.2 mph - 0.00 in   Overcast
11:34 PM 33.1 °F 26.1 °F 30.9 °F 92% 30.30 in 4.0 mi East 8.1 mph - 0.00 in Rain Light Freezing Rain
11:53 PM 33.1 °F 26.9 °F 30.9 °F 92% 30.30 in 7.0 mi East 6.9 mph - 0.00 in   Overcast